Home   Weather   Bandar Seri Begawan   Past weeks

Flag for Brunei Past Weather in Bandar Seri Begawan, Brunei — Yesterday and Last 2 Weeks

Now
84 °F

Broken clouds.


Feels Like: 94 °F
Forecast: 78 / 89 °F
Wind: 6 mph from North

Location: Brunei Airport

Current Time: Jan 22, 2017 at 4:17:22 pm

Latest Report: Jan 22, 2017 at 3:30 pm


Visibility: N/A

Pressure: 29.83 "Hg

Humidity: 79%

Dew Point: 77 °F

Location of Bandar Seri BegawanLocation

Past Weather in Bandar Seri Begawan — Graph

°F

Bandar Seri Begawan Temperature Yesterday

Maximum temperature yesterday: 88 °F (at 3:00 pm)
Minimum temperature yesterday: 75 °F (at 3:30 am)
Average temperature yesterday: 80 °F

High & Low Weather Summary for the Past Weeks

 TemperatureHumidityPressure
High90 °F (Jan 7, 3:00 pm)100% (Jan 9, 2:30 am)29.98 "Hg (Jan 9, 2:30 am)
Low73 °F (Jan 22, 6:30 am)59% (Jan 14, 12:30 pm)29.65 "Hg (Jan 7, 4:00 pm)
Average82 °F83%29.81 "Hg
* Reported Jan 7 3:00 pm — Jan 22 3:00 pm, Bandar Seri Begawan, Weather by CustomWeather, © 2017

Note: Actual official high and low records may vary slightly from our data, if they occured in-between our weather recording intervals... More about our weather records

Advertising

Bandar Seri Begawan Weather History for the Previous 24 Hours

Scroll right to see more
 ConditionsComfort  
Time TempWeatherWind HumidityBarometerVisibility
3:00 pm
Sun, Jan 22
86 °FBroken clouds.5 mph75%29.86 "HgN/A
2:30 pm86 °FBroken clouds.6 mph75%29.86 "HgN/A
2:00 pm86 °FBroken clouds.6 mph75%29.86 "HgN/A
1:30 pm86 °FBroken clouds.6 mph75%29.89 "HgN/A
1:00 pm86 °FBroken clouds.6 mph75%29.92 "HgN/A
12:30 pm86 °FBroken clouds.5 mph75%29.92 "HgN/A
12:00 pm84 °FBroken clouds.7 mph79%29.95 "HgN/A
11:30 am84 °FBroken clouds.5 mph79%29.95 "HgN/A
11:00 am84 °FBroken clouds.6 mph79%29.95 "HgN/A
10:30 am84 °FBroken clouds.3 mph74%29.95 "HgN/A
10:00 am84 °FBroken clouds.3 mph74%29.95 "HgN/A
9:30 am82 °FPartly sunny.2 mph79%29.98 "HgN/A
9:00 am81 °FBroken clouds.3 mph84%29.98 "HgN/A
8:30 am79 °FPartly sunny.3 mph89%29.95 "HgN/A
8:00 am77 °FPartly sunny.2 mph94%29.95 "HgN/A
7:30 am75 °FPartly sunny.2 mph100%29.95 "HgN/A
7:00 am75 °FPartly sunny.3 mph94%29.92 "HgN/A
6:30 am73 °FPassing clouds.2 mph100%29.92 "HgN/A
6:00 am75 °FPassing clouds.2 mph94%29.89 "HgN/A
5:30 am75 °FPassing clouds.1 mph94%29.89 "HgN/A
5:00 am75 °FPassing clouds.3 mph94%29.89 "HgN/A
4:30 am75 °FPassing clouds.3 mph94%29.89 "HgN/A
4:00 am75 °FPassing clouds.6 mph100%29.89 "HgN/A
3:30 am75 °FPassing clouds.2 mph94%29.89 "HgN/A
3:00 am75 °FPassing clouds.5 mph100%29.89 "HgN/A
2:30 am75 °FPassing clouds.3 mph100%29.92 "HgN/A
2:00 am75 °FPassing clouds.2 mph100%29.92 "HgN/A
1:30 am75 °FPartly cloudy.3 mph100%29.92 "HgN/A
1:00 am75 °FPartly cloudy.3 mph100%29.92 "HgN/A
12:30 am75 °FPartly cloudy.1 mph100%29.95 "HgN/A
12:00 am75 °FPassing clouds.2 mph100%29.95 "HgN/A
11:30 pm
Sat, Jan 21
75 °FPassing clouds.1 mph100%29.92 "HgN/A
11:00 pm75 °FPassing clouds.2 mph100%29.92 "HgN/A
10:30 pm75 °FLight rain. Passing clouds.3 mph100%29.95 "HgN/A
10:00 pm75 °FLight rain. Passing clouds.7 mph100%29.95 "Hg5 mi
9:30 pm75 °FThunderstorms. Passing clouds.7 mph100%29.95 "Hg4 mi
9:00 pm75 °FThunderstorms. Partly cloudy.8 mph100%29.95 "Hg2 mi
8:30 pm77 °FThunderstorms. Partly cloudy.8 mph94%29.95 "Hg2 mi
8:00 pm77 °FThunderstorms. Partly cloudy.15 mph94%29.92 "Hg3 mi
7:30 pm77 °FThunderstorms. Partly cloudy.6 mph100%29.92 "Hg3 mi
7:00 pm79 °FThunderstorms. Partly cloudy.8 mph100%29.89 "Hg3 mi
6:30 pm81 °FThunderstorms. Partly cloudy.5 mph89%29.86 "Hg3 mi
6:00 pm82 °FThunderstorms. Broken clouds.3 mph84%29.83 "Hg6 mi
5:30 pm82 °FThunderstorms. Broken clouds.5 mph84%29.83 "Hg6 mi
5:00 pm84 °FSprinkles. Broken clouds.5 mph84%29.83 "HgN/A
4:30 pm84 °FSprinkles. Broken clouds.6 mph84%29.83 "HgN/A
4:00 pm84 °FSprinkles. Broken clouds.8 mph84%29.80 "HgN/A
Weather by CustomWeather, © 2017

See weather overviewHow to use our weather pages